Regional Weather Roundup
Issued by NWS

Home | Current Version | Previous Version | Text Only | Print | Product List | Glossary Off
Versions: 1 2 3 4 5 6 7 8 9 10 11 12 13 14 15 16 17 18 19 20 21 22 23 24 25 26 27 28 29 30 31 32 33 34 35 36 37 38 39 40 41 42 43 44 45 46 47 48 49 50

000
ASUS43 KMKX 270021
RWRWI

WISCONSIN REGIONAL WEATHER ROUNDUP
NATIONAL WEATHER SERVICE MILWAUKEE/SULLIVAN WI
700 PM CDT WED JUL 26 2017

NOTE: "FAIR" INDICATES FEW OR NO CLOUDS BELOW 12,000 FEET WITH NO
SIGNIFICANT WEATHER AND/OR OBSTRUCTIONS TO VISIBILITY.

WIZ001-002-006>008-014>016-023>028-270100-
NORTHWEST WISCONSIN

CITY           SKY/WX    TMP DP  RH WIND       PRES   REMARKS
SUPERIOR ARPT  NOT AVBL
ASHLAND        SUNNY     79  61  53 NW7       29.97R HX  80
6HR MIN TEMP:  77; 6HR MAX TEMP:  83;

HAYWARD        SUNNY     80  60  50 N7        29.99R HX  81
6HR MIN TEMP:  77; 6HR MAX TEMP:  82;

SIREN          SUNNY     80  61  52 NW5       29.98F HX  81
6HR MIN TEMP:  78; 6HR MAX TEMP:  82;

CUMBERLAND     SUNNY     77  57  50 NW8       29.99F
RICE LAKE      SUNNY     79  59  50 NW7       29.99F HX  80
6HR MIN TEMP:  75; 6HR MAX TEMP:  82;

CHETEK         SUNNY     80  62  55 N3        29.98R HX  81
6HR MIN TEMP:  74; 6HR MAX TEMP:  81;

LADYSMITH      MOSUNNY   79  62  55 N6        30.00S HX  80
6HR MIN TEMP:  75; 6HR MAX TEMP:  81;

EAU CLAIRE     SUNNY     80  65  59 N6        29.95F HX  82
6HR MIN TEMP:  73; 6HR MAX TEMP:  80; 6HR PCP:  0.02;

MENOMONIE      SUNNY     78  63  60 NW7       29.97S HX  80
6HR MIN TEMP:  73; 6HR MAX TEMP:  80;

NEW RICHMOND   SUNNY     79  58  49 N8        29.99S HX  80
6HR MIN TEMP:  75; 6HR MAX TEMP:  81;

OSCEOLA        SUNNY     80  60  49 NW8       30.01S HX  81
6HR MIN TEMP:  76; 6HR MAX TEMP:  82;

$$

WIZ003>005-009-010-017-018-270100-
NORTH CENTRAL WISCONSIN

CITY           SKY/WX    TMP DP  RH WIND       PRES   REMARKS
MANITOWISH WTR SUNNY     75  58  54 N8        30.00R
6HR MIN TEMP:  75; 6HR MAX TEMP:  82;

ARBOR VITAE    MOSUNNY   77  60  54 N13       29.98S
6HR MIN TEMP:  77; 6HR MAX TEMP:  82;

WOODRUFF       MOSUNNY   77  60  54 N13       29.98S
6HR MIN TEMP:  77; 6HR MAX TEMP:  82;

RHINELANDER    MOSUNNY   79  62  56 NW3       29.98S HX  80
6HR MIN TEMP:  71; 6HR MAX TEMP:  81;

EAGLE RIVER    SUNNY     76  54  45 N9        29.98R
6HR MIN TEMP:  73; 6HR MAX TEMP:  81;

LAND O LAKES   SUNNY     75  47  37 NW6       30.01R
6HR MIN TEMP:  75; 6HR MAX TEMP:  82;

PHILLIPS       PTSUNNY   76  62  62 N3        29.98S
6HR MIN TEMP:  72; 6HR MAX TEMP:  79;

TOMAHAWK         N/A     77  60  56 W3        29.98
MEDFORD        MOSUNNY   74  68  82 NW3       29.98S
6HR MIN TEMP:  70; 6HR MAX TEMP:  74;

MERRILL        PTSUNNY   77  70  78 W6        29.97F
$$

WIZ029-030-035-036-043>047-270100-
CENTRAL WISCONSIN

CITY           SKY/WX    TMP DP  RH WIND       PRES   REMARKS
WAUSAU         CLOUDY    74  68  81 W7        29.95F
6HR MIN TEMP:  71; 6HR MAX TEMP:  76; 6HR PCP: TRACE;

MOSINEE        PTSUNNY   73  70  88 W6        29.98F
MARSHFIELD     CLOUDY    74  67  78 NW6       29.97S
6HR MIN TEMP:  73; 6HR MAX TEMP:  77; 6HR PCP: TRACE;

STEVENS POINT  CLOUDY    75  69  81 CALM      29.97F
6HR MIN TEMP:  73; 6HR MAX TEMP:  75;

WAUPACA        CLOUDY    81  69  66 NW6       29.96F HX  84
6HR MIN TEMP:  78; 6HR MAX TEMP:  82;

WAUTOMA        CLOUDY    77  72  83 NW3       29.96F
6HR MIN TEMP:  76; 6HR MAX TEMP:  83;

WISC RAPIDS    PTSUNNY   78  70  76 CALM      29.98S HX  80
6HR MIN TEMP:  74; 6HR MAX TEMP:  80; 6HR PCP:  0.05;

CAMP DOUGLAS   PTSUNNY   77  72  83 CALM      29.96R
                                      6HR PCP:  0.01;

$$

WIZ011>013-019>022-031-037>040-048>050-270100-
NORTHEAST WISCONSIN

CITY           SKY/WX    TMP DP  RH WIND       PRES   REMARKS
ANTIGO         PTSUNNY   74  69  83 W7        29.98S
6HR MIN TEMP:  70; 6HR MAX TEMP:  75;

SHAWANO        CLOUDY    78  69  74 SW6       29.95S HX  80
6HR MIN TEMP:  77; 6HR MAX TEMP:  79;

OCONTO         MOSUNNY   76  70  80 SW8       29.93S
6HR MIN TEMP:  71; 6HR MAX TEMP:  77;

STURGEON BAY     N/A     76  72  87 SW8       29.94F
6HR MIN TEMP:  71; 6HR MAX TEMP:  76;

GREEN BAY      CLOUDY    76  73  91 SW8       29.95S
6HR MIN TEMP:  74; 6HR MAX TEMP:  79; 6HR PCP: TRACE;

MANITOWOC      CLOUDY    74  71  91 SW6       29.96S
6HR MIN TEMP:  72; 6HR MAX TEMP:  75; 6HR PCP:  0.14;

APPLETON       PTSUNNY   77  70  78 W6        29.95S
CLINTONVILLE   CLOUDY   N/A N/A N/A W3        29.95F
OSHKOSH        CLOUDY    76  71  85 CALM      29.94F
6HR MIN TEMP:  75; 6HR MAX TEMP:  79; 6HR PCP:  0.03;

$$

WIZ032>034-041-042-053>061-270100-
SOUTHWEST WISCONSIN

CITY           SKY/WX    TMP DP  RH WIND       PRES   REMARKS
LA CROSSE      CLOUDY    83  71  67 NW5       29.94S HX  87
6HR MIN TEMP:  79; 6HR MAX TEMP:  84; 6HR PCP: TRACE;

SPARTA         CLOUDY    77  70  79 CALM      29.96F
6HR MIN TEMP:  74; 6HR MAX TEMP:  79;

VIROQUA        CLOUDY    77  72  83 CALM      29.98R
6HR MIN TEMP:  70; 6HR MAX TEMP:  78; 6HR PCP:  0.26;

BOSCOBEL       CLOUDY    79  73  82 NE5       29.94S HX  82
6HR MIN TEMP:  77; 6HR MAX TEMP:  81; 6HR PCP:  0.03;

PRAIRIE DU CHI CLOUDY    78  70  76 CALM      29.94R HX  81
6HR MIN TEMP:  77; 6HR MAX TEMP:  79;

PLATTEVILLE    CLOUDY    79  75  87 CALM      29.95F HX  83
6HR MIN TEMP:  77; 6HR MAX TEMP:  79;

$$

WIZ056-057-062-063-064-067-068-270100-
SOUTH CENTRAL WISCONSIN

CITY           SKY/WX    TMP DP  RH WIND       PRES   REMARKS
REEDSBURG      CLOUDY    76  72  87 CALM      29.95S
6HR MIN TEMP:  73; 6HR MAX TEMP:  78; 6HR PCP:  0.32;

BARABOO/DELLS  CLOUDY    75  70  83 CALM      29.95S
6HR MIN TEMP:  72; 6HR MAX TEMP:  81; 6HR PCP:  0.43;

LONE ROCK      CLOUDY    76  74  93 CALM      29.94F
6HR MIN TEMP:  74; 6HR MAX TEMP:  80; 6HR PCP:  0.30;

MINERAL POINT  CLOUDY    79  77  94 CALM      29.96F HX  83
MADISON        CLOUDY    74  72  93 SE7       29.95S
6HR MIN TEMP:  72; 6HR MAX TEMP:  79; 6HR PCP:  0.19;

MIDDLETON      CLOUDY    74  74 100 CALM      29.97S
6HR MIN TEMP:  73; 6HR MAX TEMP:  80; 6HR PCP:  0.25;

WATERTOWN      LGT RAIN  71  71 100 E5        29.96F
6HR MIN TEMP:  71; 6HR MAX TEMP:  80;

MONROE         PTSUNNY   77  72  83 CALM      29.96S
JANESVILLE     CLOUDY    82  72  69 CALM      29.95F HX  87
$$

WIZ051-052-058>065-066-070>072-270100-
SOUTHEAST WISCONSIN

CITY           SKY/WX    TMP DP  RH WIND       PRES   REMARKS
MILWAUKEE      CLOUDY    76  70  82 E5        29.98R
6HR MIN TEMP:  74; 6HR MAX TEMP:  85;

WAUKESHA       CLOUDY    72  70  94 E6        29.99S
MILWAUKEE/TIMM PTSUNNY   72  68  88 CALM      29.99R
RACINE         PTSUNNY   77  69  76 S7        30.00S
6HR MIN TEMP:  77; 6HR MAX TEMP:  85;

KENOSHA        CLOUDY    79  70  74 E5        29.98S HX  82
6HR MIN TEMP:  79; 6HR MAX TEMP:  84;

FOND DU LAC    LGT RAIN  74  70  87 S5        29.96S
6HR MIN TEMP:  73; 6HR MAX TEMP:  78; 6HR PCP:  0.13;

SHEBOYGAN      LGT RAIN  73  73 100 S9        29.97R FOG
6HR MIN TEMP:  70; 6HR MAX TEMP:  79; 6HR PCP:  0.71;

WEST BEND      DRIZZLE   72  72 100 CALM      29.99R
JUNEAU         CLOUDY    72  70  95 SE6       29.98F
6HR MIN TEMP:  71; 6HR MAX TEMP:  75;

$$

LSZ147-162-270100-
LAKE SUPERIOR

STATION/POSITION TIME  TEMP    WIND        PRES    WAVE
                       AIR SEA DIR/SP/G            HT/PER
                 (UTC) (F)     (DEG/KT/KT) (MB)    (FT/S)
W MID LAKE BUOY  2350   59 53  250/  8/ 10 1013.5R   1
DEVILS ISLAND    0000   69     230/  8/ 11 1013.9R
SAXON HARBOR     2340   79     280/  1/  2 1014.2S
$$

LMZ867-665-643>646-270100-
LAKE MICHIGAN

STATION/POSITION TIME  TEMP    WIND        PRES    WAVE
                       AIR SEA DIR/SP/G            HT/PER
                 (UTC) (F)     (DEG/KT/KT) (MB)    (FT/S)
CHAMBERS ISLAND  2340   76     190/  4/ 11 1012.5S
S GREEN BAY BUOY 0000   73 72  220/  4/  6 1013.4
N MID LAKE BUOY  2350   67 66  200/ 14/ 16 1013.3F   4/ 6
NORTHPORT PIER   2340   77     200/  3/ 11 1012.9F
KEWAUNEE LAKESHO 2354   73     230/  3/


USA.gov is the U.S. government's official web portal to all federal, state and local government web resources and services.